Waarnemingen

Advertentie
Mijn weer
Lahr, Duitsland (10805): temperatuur & dauwpunt: 17.07.2017 08:00:00 - 23.07.2017 08:00:00 (CEST)Lahr, Duitsland (10805): temperatuur 5cm & temperatuur -5cm: 17.07.2017 08:00:00 - 23.07.2017 08:00:00 (CEST)Lahr, Duitsland (10805): temperatuur -20cm & temperatuur -100cm: 17.07.2017 08:00:00 - 23.07.2017 08:00:00 (CEST)Lahr, Duitsland (10805): windsnelheid & windstoten: 17.07.2017 08:00:00 - 23.07.2017 08:00:00 (CEST)Lahr, Duitsland (10805): windrichting: 17.07.2017 08:00:00 - 23.07.2017 08:00:00 (CEST)Lahr, Duitsland (10805): luchtdruk: 17.07.2017 08:00:00 - 23.07.2017 08:00:00 (CEST)Lahr, Duitsland (10805): zicht: 17.07.2017 08:00:00 - 23.07.2017 08:00:00 (CEST)Lahr, Duitsland (10805): Zonneschijnduur: 17.07.2017 08:00:00 - 23.07.2017 08:00:00 (CEST)Lahr, Duitsland (10805): neerslag: 17.07.2017 08:00:00 - 23.07.2017 08:00:00 (CEST)
Datum & Tijd tt [°C] td [°C] tt 5cm [°C] tt -5cm [°C] tt -20cm [°C] tt -100cm [°C] ff [km/u] ff [kn] fx [km/u] fx [kn] dd ppp [hPa] vv [km] sd [min] rr [mm]
23.07.2017 08:00:00 18,6 11,8 18,4 19,4 22,1 20,3 18 10 29 15 W 1017,6 70 1 0,0
23.07.2017 07:00:00 18,9 17,1 18,6 19,7 22,3 20,3 5 3 12 7 ZZW 1016,9 42 0 0,0
23.07.2017 06:00:00 18,8 15,4 18,0 19,8 22,5 20,3 9 5 16 8 ZW 1016,4 70 0 0,0
23.07.2017 05:00:00 19,2 15,3 17,6 20,4 22,7 20,3 13 7 24 13 WZW 1015,9 69 0 0,1
23.07.2017 04:00:00 20,2 17,1 19,7 20,6 22,9 20,3 8 4 15 8 ZZW 1015,5 41 0 0,0
23.07.2017 03:00:00 20,5 17,0 19,8 20,7 23,1 20,3 11 6 18 10 ZZW 1015,3 47 0 0,0
23.07.2017 02:00:00 20,6 17,2 19,8 20,9 23,3 20,3 8 5 15 8 Z 1015,0 39 0 0,0
23.07.2017 01:00:00 20,9 17,2 19,3 21,1 23,6 20,3 6 3 18 10 ZZW 1014,2 30 0 0,0
23.07.2017 00:00:00 21,7 16,5 20,6 21,5 23,9 20,3 12 7 22 12 ZW 1013,5 43 0 0,0
22.07.2017 23:00:00 22,0 16,2 21,0 21,9 24,2 20,3 16 9 25 13 Z 1013,5 53 0 0,0
22.07.2017 22:00:00 21,5 15,9 20,6 22,7 24,5 20,3 12 6 20 11 ZZO 1012,5 65 0 0,0
22.07.2017 21:00:00 22,3 15,6 21,4 23,8 24,7 20,3 12 7 38 21 ZZO 1012,1 70 0 0,0
22.07.2017 20:00:00 25,7 15,7 24,9 26,0 24,8 20,3 19 10 38 21 Z 1012,4 47 10 0,0
22.07.2017 19:00:00 27,5 16,0 28,4 27,2 24,7 20,3 21 11 31 17 Z 1012,2 55 15 0,0
22.07.2017 18:00:00 28,7 15,1 30,4 29,1 24,5 20,3 16 8 31 17 ZW 1011,9 43 60 0,0
22.07.2017 17:00:00 27,9 15,3 30,2 29,2 24,3 20,3 18 10 33 18 ZZW 1012,1 37 47 0,0
22.07.2017 16:00:00 28,4 16,7 31,4 28,7 24,0 20,3 17 9 36 19 Z 1012,5 38 39 0,0
22.07.2017 15:00:00 27,4 16,9 29,4 28,4 23,6 20,3 13 7 27 15 ZZW 1012,7 66 29 0,0
22.07.2017 14:00:00 27,0 16,1 30,9 29,2 23,2 20,3 13 7 25 14 Z 1013,2 66 55 0,0
22.07.2017 13:00:00 26,2 17,2 29,8 27,5 22,8 20,3 12 7 23 13 Z 1013,4 38 49 0,0
22.07.2017 12:00:00 24,5 16,6 27,3 26,5 22,5 20,3 11 6 24 13 ZZW 1013,7 42 59 0,0
22.07.2017 11:00:00 23,8 17,8 26,5 25,1 22,2 20,3 11 6 22 12 ZZO 1013,7 44 60 0,0
22.07.2017 10:00:00 22,2 17,3 24,9 23,7 22,1 20,3 13 7 19 10 ZZW 1014,1 38 60 0,0
22.07.2017 09:00:00 20,5 17,3 22,9 21,7 22,1 20,3 6 3 12 7 ZZW 1014,1 44 60 0,0
22.07.2017 08:00:00 19,5 17,2 20,3 20,1 22,3 20,3 5 3 10 6 ZZO 1013,6 40 45 0,0
22.07.2017 07:00:00 17,6 16,9 17,3 19,5 22,5 20,3 6 4 9 5 ZZO 1013,7 26 1 0,0
22.07.2017 06:00:00 17,4 16,9 16,7 19,7 22,7 20,3 5 3 9 5 ZO 1013,3 19 0 0,0
22.07.2017 05:00:00 17,5 17,1 17,1 19,9 22,9 20,3 4 2 7 4 Z 1013,0 17 0 0,0
22.07.2017 04:00:00 17,8 17,2 17,5 20,2 23,2 20,3 3 2 8 4 ZZO 1012,8 27 0 0,0
22.07.2017 03:00:00 17,7 17,1 17,2 20,4 23,5 20,3 3 2 7 4 W 1012,7 35 0 0,0
22.07.2017 02:00:00 17,8 17,5 17,5 20,6 23,8 20,2 3 2 5 3 OZO 1012,8 19 0 0,1
22.07.2017 01:00:00 17,8 17,2 17,5 20,8 24,2 20,2 3 1 13 7 NNO 1012,7 34 0 0,0
22.07.2017 00:00:00 18,1 17,5 17,8 21,1 24,6 20,2 8 4 14 7 ZZW 1012,8 47 0 0,0
21.07.2017 23:00:00 17,7 16,9 17,1 21,7 25,1 20,2 9 5 17 9 Z 1012,3 49 0 0,0
21.07.2017 22:00:00 17,9 16,8 17,2 22,6 25,5 20,2 13 7 39 21 O 1011,6 34 0 5,7
21.07.2017 21:00:00 18,0 17,4 17,7 25,7 25,7 20,2 28 15 68 37 Z 1012,7 1,5 0 1,8
21.07.2017 20:00:00 25,9 18,0 25,4 28,2 25,8 20,2 6 3 17 9 N 1009,3 70 0 0,0
21.07.2017 19:00:00 27,4 16,9 27,3 30,1 25,6 20,2 12 7 22 12 N 1009,1 70 6 0,0
21.07.2017 18:00:00 28,4 16,8 30,2 31,7 25,3 20,2 17 9 26 14 N 1008,8 44 60 0,0
21.07.2017 17:00:00 28,1 16,3 31,5 32,1 24,9 20,2 18 10 29 16 N 1009,4 59 46 0,0
21.07.2017 16:00:00 28,3 16,7 33,0 32,8 24,3 20,2 14 7 27 14 NNO 1010,0 41 59 0,0
21.07.2017 15:00:00 27,1 15,9 33,0 32,3 23,6 20,2 16 9 28 15 N 1011,0 10 60 0,0
21.07.2017 14:00:00 27,0 16,8 32,9 31,2 23,0 20,2 11 6 23 13 NNO 1011,7 37 60 0,0
21.07.2017 13:00:00 25,7 16,8 31,3 29,1 22,5 20,2 13 7 25 14 N 1012,4 30 60 0,0
21.07.2017 12:00:00 23,7 15,6 28,9 26,7 22,1 20,2 14 8 22 12 N 1013,2 31 60 0,0
21.07.2017 11:00:00 22,7 15,0 27,1 24,0 21,8 20,2 12 6 19 10 N 1013,7 37 57 0,0
21.07.2017 10:00:00 21,2 15,8 25,3 22,2 21,8 20,1 8 4 13 7 N 1014,2 47 37 0,0
21.07.2017 09:00:00 18,9 15,1 19,9 20,1 21,8 20,1 8 4 10 5 NNO 1014,7 10 0 0,0
21.07.2017 08:00:00 17,6 16,6 17,4 19,3 22,0 20,1 6 4 8 4 NNO 1014,8 32 0 0,0
21.07.2017 07:00:00 16,2 16,1 16,4 18,8 22,2 20,1 4 2 6 3 ONO 1014,7 11 0 0,0
21.07.2017 06:00:00 15,2 15,1 14,3 18,7 22,5 20,1 5 3 8 4 NNO 1014,8 6 0 0,0
21.07.2017 05:00:00 15,4 15,3 13,7 19,0 22,8 20,1 4 2 6 4 N 1014,8 7 0 0,0
21.07.2017 04:00:00 16,3 16,0 15,3 19,4 23,0 20,1 5 3 7 4 N 1014,7 28 0 0,0
21.07.2017 03:00:00 16,9 16,3 15,1 20,0 23,3 20,1 3 2 6 3 ONO 1014,9 20 0 0,0
21.07.2017 02:00:00 18,1 17,1 17,0 20,7 23,6 20,1 7 4 10 6 ZZO 1014,7 26 0 0,0
21.07.2017 01:00:00 18,8 17,5 17,8 21,3 23,8 20,1 5 3 13 7 ZW 1014,7 23 0 0,0
21.07.2017 00:00:00 19,4 16,8 17,5 21,6 24,1 20,0 2 1 12 7 Z 1014,3 50 0 0,0
20.07.2017 23:00:00 20,4 17,3 19,2 22,1 24,4 20,0 9 5 13 7 ZZO 1014,3 48 0 0,0
20.07.2017 22:00:00 20,9 17,7 18,9 22,9 24,7 20,0 6 3 12 6 Z 1013,9 57 0 0,0
20.07.2017 21:00:00 22,4 17,3 21,1 24,1 24,9 20,0 9 5 18 10 ZZO 1013,1 68 48 0,0
20.07.2017 20:00:00 23,5 17,0 23,1 25,4 25,0 20,0 10 6 18 10 Z 1012,8 64 60 0,0
20.07.2017 19:00:00 22,9 18,3 23,7 26,5 25,1 20,0 11 6 20 11 ZZO 1012,8 61 37 1,0
20.07.2017 18:00:00 21,8 17,1 21,7 26,8 25,1 20,0 3 2 18 10 OZO 1013,5 70 8 0,0
20.07.2017 17:00:00 21,5 16,5 22,5 28,3 24,9 20,0 17 9 44 24 NNW 1013,2 46 9 1,7
20.07.2017 16:00:00 27,0 14,9 31,1 31,7 24,3 20,0 15 8 26 14 Z 1012,0 64 52 0,0
20.07.2017 15:00:00 25,9 15,9 31,6 30,5 23,9 19,9 7 4 20 11 ZZW 1012,4 70 56 0,0
20.07.2017 14:00:00 24,7 15,2 33,2 27,4 23,7 19,9 6 3 14 8 WZW 1013,1 49 30 0,0
20.07.2017 13:00:00 22,3 16,4 25,6 24,0 23,8 19,9 5 3 16 9 ZW 1013,6 10 0 0,1
20.07.2017 12:00:00 21,3 17,0 22,3 23,4 23,9 19,9 11 6 27 15 ZW 1013,8 70 0 0,0
20.07.2017 11:00:00 20,9 16,3 19,7 23,5 23,9 19,9 18 10 39 21 ZZW 1013,5 24 0 0,1
20.07.2017 10:00:00 23,1 15,6 23,5 24,0 24,0 19,9 13 7 27 15 ZZW 1012,8 70 3 0,0
20.07.2017 09:00:00 23,3 14,9 24,5 23,5 24,1 19,9 15 8 32 17 ZZW 1012,7 70 5 0,0
20.07.2017 08:00:00 23,2 14,1 23,6 23,0 24,3 19,8 16 8 28 15 Z 1012,2 70 1 0,0
20.07.2017 07:00:00 22,2 14,1 21,6 22,8 24,5 19,8 18 10 28 15 Z 1012,1 70 0 0,0
20.07.2017 06:00:00 22,7 15,1 21,7 23,3 24,7 19,8 17 9 29 16 Z 1012,0 62 0 0,0
20.07.2017 05:00:00 22,9 15,0 21,9 23,6 24,9 19,8 14 8 26 14 Z 1011,8 62 0 0,0
20.07.2017 04:00:00 24,7 13,5 23,3 24,0 25,2 19,8 16 9 28 15 Z 1011,3 70 0 0,0
20.07.2017 03:00:00 25,6 13,7 24,4 24,3 25,4 19,8 16 9 26 14 Z 1011,0 69 0 0,0
20.07.2017 02:00:00 24,0 14,9 23,1 24,6 25,7 19,8 9 5 17 9 ZW 1011,0 66 0 0,0
20.07.2017 01:00:00 23,6 15,5 22,1 25,0 26,0 19,8 5 3 11 6 Z 1010,4 48 0 0,0
20.07.2017 00:00:00 23,1 15,7 20,8 25,7 26,4 19,8 7 4 16 9 ZZW 1010,5 68 0 0,0
19.07.2017 23:00:00 25,9 15,5 23,6 26,7 26,6 19,8 10 6 15 8 ZZW 1010,6 54 0 0,0
19.07.2017 22:00:00 27,5 14,9 25,0 28,0 26,9 19,7 7 4 15 8 ZZW 1010,3 63 0 0,0
19.07.2017 21:00:00 28,7 13,9 27,4 29,4 27,0 19,7 8 5 24 13 Z 1009,6 58 15 0,0
19.07.2017 20:00:00 30,2 15,0 29,7 31,3 26,9 19,7 13 7 25 13 WZW 1009,2 10 28 0,0
19.07.2017 19:00:00 32,5 15,8 34,2 32,6 26,7 19,7 9 5 14 8 W 1009,0 58 49 0,0
19.07.2017 18:00:00 32,6 16,4 35,2 33,3 26,4 19,7 5 3 17 9 ZZW 1009,0 65 47 0,0
19.07.2017 17:00:00 33,0 15,2 36,7 34,4 26,0 19,7 12 6 23 12 ZW 1009,8 32 60 0,0
19.07.2017 16:00:00 32,4 15,5 38,5 34,1 25,5 19,7 8 5 23 12 ZZW 1010,4 49 60 0,0
19.07.2017 15:00:00 31,7 14,5 37,7 33,2 24,9 19,7 12 7 26 14 ZW 1010,7 32 60 0,0
19.07.2017 14:00:00 31,0 15,9 37,3 32,3 24,4 19,7 18 10 27 15 WZW 1011,0 33 60 0,0
19.07.2017 13:00:00 30,5 14,7 35,4 31,2 23,9 19,6 15 8 24 13 ZZW 1011,1 41 60 0,0
19.07.2017 12:00:00 30,0 14,8 35,9 29,1 23,5 19,6 12 7 26 14 Z 1011,8 43 60 0,0
19.07.2017 11:00:00 28,5 13,9 32,7 26,7 23,3 19,6 16 9 38 20 ZZW 1012,5 33 60 0,0
19.07.2017 10:00:00 27,5 15,0 30,6 25,2 23,2 19,6 20 11 33 18 ZZW 1012,8 40 60 0,0
19.07.2017 09:00:00 24,2 16,8 27,6 23,4 23,3 19,6 7 4 14 8 ZW 1013,4 39 60 0,0
19.07.2017 08:00:00 23,2 15,8 24,8 22,2 23,5 19,6 4 2 11 6 Z 1013,3 62 56 0,0
19.07.2017 07:00:00 20,6 15,7 19,7 21,5 23,8 19,6 8 5 11 6 ZZO 1013,3 58 0 0,0
19.07.2017 06:00:00 20,7 15,5 18,2 21,8 24,0 19,6 8 4 12 6 ZZO 1013,3 70 0 0,0
19.07.2017 05:00:00 20,2 16,0 17,6 22,3 24,3 19,6 6 4 13 7 ZZO 1012,9 63 0 0,0
19.07.2017 04:00:00 20,9 15,9 18,4 22,9 24,6 19,6 7 4 10 5 ZZO 1012,8 67 0 0,0
19.07.2017 03:00:00 22,0 15,9 19,8 23,5 24,9 19,6 8 4 12 7 ZZO 1012,9 69 0 0,0
19.07.2017 02:00:00 22,9 16,1 21,1 24,2 25,2 19,6 8 4 21 11 ZW 1012,6 70 0 0,0
19.07.2017 01:00:00 24,6 15,3 23,5 24,8 25,6 19,5 11 6 22 12 ZZO 1012,3 70 0 0,0
19.07.2017 00:00:00 25,1 15,7 23,7 25,5 25,9 19,5 11 6 22 12 ZO 1012,7 70 0 0,0
18.07.2017 23:00:00 25,9 15,5 24,1 26,5 26,2 19,5 8 4 18 10 OZO 1012,6 70 0 0,0
18.07.2017 22:00:00 25,0 17,8 22,2 27,8 26,4 19,5 5 3 8 5 ONO 1012,6 51 0 0,0
18.07.2017 21:00:00 27,4 17,5 25,5 29,6 26,5 19,5 9 5 15 8 NNO 1012,4 62 48 0,0
18.07.2017 20:00:00 30,3 17,2 30,1 31,5 26,5 19,5 9 5 18 10 NNO 1012,1 68 60 0,0
18.07.2017 19:00:00 31,5 16,1 32,5 33,3 26,2 19,5 13 7 16 9 NNO 1012,0 10 60 0,0
18.07.2017 18:00:00 32,0 14,8 35,3 34,6 25,8 19,5 6 3 16 9 NNO 1012,5 47 60 0,0
18.07.2017 17:00:00 31,8 16,0 36,7 35,1 25,2 19,5 10 5 18 10 NNO 1013,1 47 60 0,0
18.07.2017 16:00:00 31,4 17,5 38,1 35,2 24,6 19,5 7 4 16 9 ONO 1013,7 43 60 0,0
18.07.2017 15:00:00 30,9 17,3 39,0 34,3 23,9 19,5 9 5 16 8 N 1014,4 10 60 0,0
18.07.2017 14:00:00 30,1 17,3 36,6 32,9 23,3 19,5 8 4 16 8 NO 1015,2 37 59 0,0
18.07.2017 13:00:00 28,6 17,8 35,5 31,5 22,6 19,5 7 4 13 7 NNO 1016,0 42 60 0,0
18.07.2017 12:00:00 26,4 17,1 32,1 29,2 22,1 19,5 6 4 16 8 NNO 1016,8 30 60 0,0
18.07.2017 11:00:00 25,4 17,5 31,8 26,7 21,8 19,5 5 3 11 6 NNO 1017,1 32 60 0,0
18.07.2017 10:00:00 23,5 16,8 28,6 24,0 21,7 19,5 6 3 13 7 NNO 1017,6 28 60 0,0
18.07.2017 09:00:00 21,8 16,9 25,5 21,9 21,7 19,5 5 3 11 6 N 1018,0 10 60 0,0
18.07.2017 08:00:00 20,0 16,6 21,8 20,2 21,9 19,5 4 2 5 3 NO 1018,2 17 60 0,0
18.07.2017 07:00:00 19,0 16,2 18,7 19,5 22,1 19,5 0 0 5 3 ZO 1018,3 19 31 0,0
18.07.2017 06:00:00 16,9 15,9 14,9 19,7 22,4 19,5 5 3 10 5 ONO 1018,4 18 0 0,0
18.07.2017 05:00:00 16,8 15,8 15,9 20,2 22,7 19,5 6 3 9 5 NO 1018,1 17 0 0,0
18.07.2017 04:00:00 17,9 16,0 15,3 20,8 23,0 19,5 7 4 8 5 NNW 1018,2 27 0 0,0
18.07.2017 03:00:00 18,9 16,0 15,9 21,5 23,3 19,5 2 1 6 3 NW 1018,4 40 0 0,0
18.07.2017 02:00:00 20,1 16,2 18,0 22,1 23,6 19,5 4 2 7 4 NO 1018,5 45 0 0,0
18.07.2017 01:00:00 20,0 16,5 19,0 22,8 23,9 19,5 9 5 10 6 NNO 1018,5 43 0 0,0
18.07.2017 00:00:00 21,2 16,6 20,1 23,5 24,3 19,5 8 5 11 6 NO 1018,5 46 0 0,0
17.07.2017 23:00:00 21,6 16,3 20,0 24,5 24,6 19,5 8 4 15 8 NNO 1018,5 60 0 0,0
17.07.2017 22:00:00 23,4 15,2 20,4 26,0 24,7 19,5 10 5 13 7 NNO 1018,1 70 0 0,0
17.07.2017 21:00:00 26,3 15,3 25,1 27,9 24,8 19,5 10 5 17 9 NNO 1017,6 70 51 0,0
17.07.2017 20:00:00 28,8 13,2 29,4 29,5 24,7 19,5 11 6 18 10 NNO 1017,6 70 60 0,0
17.07.2017 19:00:00 29,1 12,2 30,3 31,1 24,5 19,5 11 6 19 10 N 1017,6 55 60 0,0
17.07.2017 18:00:00 29,8 13,0 32,0 32,2 24,1 19,5 10 5 24 13 NNO 1018,0 49 60 0,0
17.07.2017 17:00:00 28,9 13,6 33,5 33,0 23,6 19,5 13 7 22 12 NO 1018,6 45 60 0,0
17.07.2017 16:00:00 28,7 13,5 33,9 33,3 22,9 19,5 5 3 21 11 N 1019,0 10 60 0,0
17.07.2017 15:00:00 28,2 15,2 34,2 33,1 22,2 19,5 10 5 31 17 NO 1019,5 53 60 0,0
17.07.2017 14:00:00 27,7 14,7 34,7 31,8 21,5 19,5 6 3 15 8 NO 1020,0 44 60 0,0
17.07.2017 13:00:00 26,5 14,1 32,8 30,0 20,8 19,5 8 4 16 9 NO 1020,4 52 60 0,0
17.07.2017 12:00:00 24,9 14,8 32,1 27,7 20,2 19,5 5 3 14 7 - 1020,9 10 60 0,0
17.07.2017 11:00:00 23,8 14,4 28,7 25,1 19,7 19,5 5 3 9 5 NW 1021,4 56 60 0,0
17.07.2017 10:00:00 22,6 14,7 25,6 22,3 19,5 19,5 3 2 7 4 O 1021,7 46 60 0,0
17.07.2017 09:00:00 20,5 13,7 23,8 19,6 19,4 19,5 2 1 9 5 NW 1021,9 50 60 0,0
17.07.2017 08:00:00 17,9 14,1 19,4 17,1 19,6 19,5 6 3 9 5 ZW 1021,9 42 60 0,0

tt = temperatuur
td = dauwpunt
tt 5cm = temperatuur 5cm
tt -5cm = temperatuur -5cm
tt -20cm = temperatuur -20cm
tt -100cm = temperatuur -100cm
ff = windsnelheid
fx = windstoten
dd = windrichting
ppp = luchtdruk
vv = zicht
sd = Zonneschijnduur
rr = neerslag

Weerstations in de omgeving